Regional Weather Roundup
Issued by NWS Raleigh/Durham, NC

Home | Current Version | Previous Version | Text Only | Print | Product List | Glossary On
Versions: 1 2 3 4 5 6 7 8 9 10 11 12 13 14 15 16 17 18 19 20 21 22 23 24 25 26 27 28 29 30 31 32 33 34 35 36 37 38 39 40 41 42 43 44 45 46 47 48 49 50
000
ASUS42 KRAH 290210
RWRRAH
NORTH CAROLINA WEATHER ROUNDUP
NATIONAL WEATHER SERVICE RALEIGH NC
1000 PM EDT TUE JUL 28 2015

NOTE: "FAIR" INDICATES FEW OR NO CLOUDS BELOW 12,000 FEET WITH NO
SIGNIFICANT WEATHER AND/OR OBSTRUCTIONS TO VISIBILITY.

NCZ001-053-055-056-065-067-290300-
WESTERN NORTH CAROLINA

CITY           SKY/WX    TMP DP  RH WIND       PRES   REMARKS
ASHEVILLE      CLOUDY    76  69  79 CALM      30.09R
JEFFERSON      PTCLDY    69  66  89 CALM      30.14S
MORGANTON      CLOUDY    79  72  77 NE5       30.07R
HICKORY        MOCLDY    77  71  82 E6        30.03R
RUTHERFORDTON  CLOUDY    75  74  95 CALM      30.03R
MOUNT AIRY     CLOUDY    73  70  91 N5        30.06R
BOONE          CLOUDY    70  69  95 E3        30.15R
$$

NCZ021-022-025-041-071-084-088-290300-
CENTRAL NORTH CAROLINA

CITY           SKY/WX    TMP DP  RH WIND       PRES   REMARKS
CHARLOTTE      MOCLDY    76  72  87 CALM      29.99S
GREENSBORO     CLOUDY    76  75  97 N5        30.01R
WINSTON-SALEM  CLOUDY    75  72  90 CALM      30.02R
RALEIGH-DURHAM MOCLDY    79  74  84 E6        29.98F
FORT BRAGG     PTCLDY    83  69  63 SE3       29.97R
FAYETTEVILLE   PTCLDY    79  70  74 SE7       29.97R
BURLINGTON     LGT RAIN  75  73  93 NW3       29.99F
LAURINBURG     PTCLDY    80  66  62 CALM      29.97S
$$

NCZ011-015-027-028-043-044-047-080-103-290300-
NORTHEASTERN NORTH CAROLINA

CITY           SKY/WX    TMP DP  RH WIND       PRES   REMARKS
ROCKY MT-WILSO MOCLDY    76  72  87 CALM      29.99R
GREENVILLE     MOCLDY    81  72  74 S3        30.02R
WASHINGTON     PTCLDY    76  71  84 E3        30.00S
ELIZABETH CITY MOCLDY    78  70  76 S6        30.00R
MANTEO         CLEAR     77  70  80 E3        30.01R
CAPE HATTERAS  CLEAR     77  69  76 E5        30.01R
$$

NCZ078-087-090-091-093-098-101-290300-
SOUTHEASTERN NORTH CAROLINA

CITY           SKY/WX    TMP DP  RH WIND       PRES   REMARKS
LUMBERTON      PTCLDY    82  69  64 SE6       29.97R
GOLDSBORO      PTCLDY    81  74  80 SE5       29.97S
KENANSVILLE    MOCLDY    76  70  80 CALM      30.00S
NEW BERN       PTCLDY    77  70  79 S3        30.00R
CHERRY POINT   MOCLDY    77  71  82 E3        30.00R
BEAUFORT       PTCLDY    79  72  79 CALM      30.00R
JACKSONVILLE   MOCLDY    78  71  79 VRB6      29.99R
WILMINGTON     MOCLDY    78  71  79 E5        29.98S
$$



USA.gov is the U.S. government's official web portal to all federal, state and local government web resources and services.